Weather History for KHIB - September, 2013

Change the Weather History Date:

Friday, September 6, 2013

  Actual Average Record
Temperature  
Mean Temperature 68 °F -  
Max Temperature 84 °F 68 °F 90 °F (1978)
Min Temperature 51 °F 46 °F 31 °F (1988)
Cooling Degree Days 2    
Growing Degree Days 18 (Base 50)    
Moisture  
Dew Point 60 °F    
Average Humidity 80    
Maximum Humidity 100    
Minimum Humidity 53    
Precipitation  
Precipitation 0.00 in - - ()
Sea Level Pressure  
Sea Level Pressure 29.97 in    
Wind  
Wind Speed 1 mph (WSW)    
Max Wind Speed 10 mph    
Max Gust Speed 18 mph    
Visibility 10 miles    
Events      
Averages and records for this station are not official NWS values.
T = Trace of Precipitation, MM = Missing Value Source: NWS Daily Summary

Daily Weather History Graph

Daily Weather History Graph

Search for Another Location

Airport or City:

Trip Planner

Search our weather history database for the weather conditions in past years. The results will help you decide how hot, cold, wet, or windy it might be!

Date:

Astronomy

Sep. 06, 2013 Rise Set
Actual Time 6:37 AM CDT 7:41 PM CDT
Civil Twilight 6:05 AM CDT 8:12 PM CDT
Nautical Twilight 5:28 AM CDT 8:49 PM CDT
Astronomical Twilight 4:48 AM CDT 9:29 PM CDT
Moon 7:58 AM CDT (9/6) 7:54 PM CDT (9/6)
Length of Visible Light 14h 06m
Length of Day
13h 03m
New Moon, 2% of the Moon is Illuminated
Sep 6
New Moon
Sep 12
First Quarter
Sep 19
Full
Sep 26
Last Quarter
Oct 4
New

Hourly Weather History & Observations

Time (CDT) Temp. Heat Index Dew Point Humidity Pressure Visibility Wind Dir Wind Speed Gust Speed Precip Events Conditions
12:53 AM 52.0 °F - 48.9 °F 89% 30.11 in 10.0 mi Calm Calm - N/A   Clear
1:53 AM 52.0 °F - 48.9 °F 89% 30.09 in 10.0 mi Calm Calm - N/A   Clear
2:53 AM 53.1 °F - 50.0 °F 89% 30.08 in 10.0 mi Calm Calm - N/A   Clear
3:53 AM 54.0 °F - 52.0 °F 93% 30.06 in 10.0 mi Calm Calm - N/A   Clear
4:53 AM 54.0 °F - 52.0 °F 93% 30.05 in 10.0 mi Calm Calm - N/A   Clear
5:53 AM 53.1 °F - 51.1 °F 93% 30.04 in 10.0 mi Calm Calm - N/A   Clear
6:53 AM 52.0 °F - 50.0 °F 93% 30.03 in 6.0 mi Calm Calm - N/A   Clear
7:11 AM 51.8 °F - 51.8 °F 100% 30.02 in 10.0 mi Calm Calm - N/A   Scattered Clouds
7:22 AM 53.6 °F - 51.8 °F 94% 30.01 in 10.0 mi Calm Calm - N/A   Mostly Cloudy
7:45 AM 57.2 °F - 53.6 °F 88% 30.01 in 10.0 mi Calm Calm - N/A   Overcast
7:53 AM 57.9 °F - 54.0 °F 87% 30.02 in 10.0 mi Calm Calm - N/A   Overcast
8:48 AM 64.4 °F - 60.8 °F 88% 30.01 in 10.0 mi South 3.5 mph - N/A   Overcast
8:53 AM 64.0 °F - 60.1 °F 87% 30.01 in 10.0 mi Calm Calm - N/A   Overcast
9:53 AM 68.0 °F - 62.1 °F 81% 29.99 in 10.0 mi Calm Calm - N/A   Partly Cloudy
10:53 AM 77.0 °F - 64.9 °F 66% 29.97 in 10.0 mi SW 6.9 mph - N/A   Clear
11:53 AM 80.1 °F 81.9 °F 64.9 °F 60% 29.96 in 10.0 mi Variable 6.9 mph - N/A   Clear
12:53 PM 82.9 °F 84.6 °F 64.9 °F 54% 29.94 in 10.0 mi WSW 6.9 mph - N/A   Partly Cloudy
1:53 PM 84.0 °F 86.3 °F 66.0 °F 55% 29.91 in 10.0 mi Variable 6.9 mph - N/A   Clear
2:53 PM 84.9 °F 87.1 °F 66.0 °F 53% 29.90 in 10.0 mi West 10.4 mph 18.4 mph N/A   Clear
3:53 PM 84.0 °F 86.5 °F 66.9 °F 56% 29.89 in 10.0 mi WSW 4.6 mph - N/A   Partly Cloudy
4:53 PM 84.9 °F 88.2 °F 68.0 °F 57% 29.88 in 10.0 mi West 8.1 mph - N/A   Partly Cloudy
5:53 PM 82.0 °F 84.9 °F 68.0 °F 62% 29.88 in 10.0 mi West 4.6 mph - N/A   Scattered Clouds
6:53 PM 80.1 °F 82.9 °F 69.1 °F 69% 29.88 in 10.0 mi Calm Calm - N/A   Partly Cloudy
7:53 PM 73.0 °F - 68.0 °F 84% 29.88 in 10.0 mi Calm Calm - N/A   Clear
8:53 PM 71.1 °F - 68.0 °F 90% 29.89 in 10.0 mi Calm Calm - N/A   Clear
9:53 PM 69.1 °F - 66.0 °F 90% 29.89 in 8.0 mi Calm Calm - N/A   Clear
10:53 PM 69.1 °F - 66.0 °F 90% 29.89 in 10.0 mi Calm Calm - N/A   Clear
11:53 PM 68.0 °F - 66.0 °F 93% 29.90 in 8.0 mi Calm Calm - N/A   Clear